Regional Weather Roundup
Issued by NWS Midland/Odessa, TX

Home | Current Version | Previous Version | Text Only | Print | Product List | Glossary On
Versions: 1 2 3 4 5 6 7 8 9 10 11 12 13 14 15 16 17 18 19 20 21 22 23 24 25 26 27 28 29 30 31 32 33 34 35 36 37 38 39 40 41 42 43 44 45 46 47 48 49 50
000
ASUS44 KMAF 170510
RWRMAF
MIDLAND AREA WEATHER ROUNDUP
NATIONAL WEATHER SERVICE MIDLAND TX
1100 PM CST SAT NOV 16 2019

...IN SOUTHWEST TEXAS AND SOUTHEAST NEW MEXICO...

CITY           SKY/WX    TMP DP  RH WIND       PRES   REMARKS
ALPINE         CLEAR     51  42  71 SW8       30.14S
ANDREWS        FAIR      47  40  76 S10       29.99S
ARTESIA        CLEAR     45  32  61 CALM      30.02R
BIG SPRING     CLEAR     46  38  72 S9        30.01F
CARLSBAD       CLEAR     51  32  48 CALM      29.98R
DRYDEN         NOT AVBL
FORT STOCKTON  CLEAR     53  44  71 S10       30.01S
GUAD PASS      CLEAR     49  31  49 SW18      30.11S
HOBBS          CLEAR     45  37  76 SW10      29.99F WCI  39
LAMESA         NOT AVBL
MARFA          CLEAR     39  36  89 N5        30.13S WCI  36
MIDLAND AIRPK  CLEAR     50  39  67 S9        29.99S
MIDLAND INTL   CLEAR     50  39  66 S6        29.99S
ODESSA         CLEAR     49  32  52 SW12      29.99S
PECOS          CLEAR     47  37  70 CALM      29.98S
PRESIDIO       FAIR      53  46  77 CALM      30.08S
SEMINOLE       CLEAR     43  38  83 SW5       30.03S
SNYDER         CLEAR     47  38  72 S8        29.99S
WINK           CLEAR     47  40  76 SE8       29.98S
$$
...OTHER STATIONS IN TEXAS...

CITY           SKY/WX    TMP DP  RH WIND       PRES   REMARKS
ABILENE        CLEAR     53  37  54 S9        30.00F
AMARILLO       CLEAR     47  34  60 W3        29.98R
AUSTIN         MOCLDY    45  39  79 SE3       30.10F
BROWNSVILLE    FAIR      56  51  84 E3        30.09F
CORPUS CHRISTI PTCLDY    53  50  89 E6        30.11S
DALLAS FTW     MOCLDY    49  35  58 S9        30.05F
DEL RIO        CLEAR     54  40  59 E7        30.05F
EL PASO        CLEAR     51  34  52 CALM      30.06S
HOUSTON INT    MOCLDY    43  39  86 NE5       30.11F
LUBBOCK        MOCLDY    52  39  61 SW13      29.96S
SAN ANGELO     CLEAR     48  38  68 S6        30.02F
SAN ANTONIO    MOCLDY    48  41  76 CALM      30.10F
WACO           CLEAR     50  38  63 S10       30.09F
WICHITA FALLS  CLOUDY    51  32  48 S10       30.01R
$$
...OTHER LOCATIONS IN NEW MEXICO...

CITY           SKY/WX    TMP DP  RH WIND       PRES   REMARKS
ALAMOGORDO     CLEAR     46  23  39 NE10      30.10S
ALBUQUERQUE    PTCLDY    40  24  53 CALM      30.15R
CANNON AFB     CLOUDY    45  29  54 NW5       29.99R
CLOVIS         MOCLDY    44  30  57 W8        29.99R WCI  39
HOLLOMAN AFB   CLEAR     42  24  47 NE3       30.09R
ROSWELL        CLEAR     47  35  63 W3        29.98S
RUIDOSO        CLEAR     45  19  36 W6        30.18S
SANTA FE       CLEAR     39  17  41 N10       30.16R WCI  32
TRUTH OR CONSE CLEAR     49  27  42 NW9       30.11R
TUCUMCARI      MOCLDY    48  25  40 N8        29.99R
$$



USA.gov is the U.S. government's official web portal to all federal, state and local government web resources and services.